Location: New Canada
(47.1017°N, 68.5042°W)
Time: 21:17:44
(UTC+00:00)

RS-44 - Pass Details

Date: 07 April 2023
Orbit: 1175 x 1510 km, 82.5° (Epoch: 02 June)

Event Time Altitude Azimuth Distance (km) Brightness Sun altitude
Rises 02:19:42 0° 358° (N) 4,425 ? -28.3°
Reaches altitude 10° 02:25:43 10° 31° (NNE) 3,535 ? -28.9°
Maximum altitude 02:27:59 11° 47° (NE) 3,472 ? -29.2°
Drops below altitude 10° 02:30:16 10° 63° (ENE) 3,587 ? -29.4°
Enters shadow 02:32:07 - 74° (ENE) 3,801 ? -29.6°
